Location: Biltmore Gardens
(41.6070°N, 83.4666°W)
Time: 15:38:03
(UTC+00:00)

Vanguard 3 - Visible Passes

Search period start: 19 April 2021 00:00
Search period end: 29 April 2021 00:00
Orbit: 508 x 3262 km, 33.3° (Epoch: 19 April)

Date Brightness Start Highest point End Pass type
(mag) Time Alt. Az. Time Alt. Az. Time Alt. Az.
19 Apr 7.4 09:14:43 24° S 09:15:02 24° S 09:18:11 10° SE visible
20 Apr 7.8 10:09:31 10° WSW 10:12:20 20° S 10:15:24 10° SE visible
21 Apr 7.6 08:59:23 23° S 08:59:23 23° S 09:01:54 10° SE visible
22 Apr 7.9 09:54:03 12° SW 09:56:07 18° SSW 09:58:46 10° SSE visible
23 Apr 8.0 08:44:10 19° SSE 08:44:10 19° SSE 08:45:42 10° SE visible
24 Apr 8.0 09:38:54 14° SW 09:39:52 16° SSW 09:42:09 10° SSE visible
25 Apr 8.6 08:29:07 12° SE 08:29:07 12° SE 08:29:32 10° SE visible
26 Apr 10.2 02:42:27 10° SSW 02:45:11 14° S 02:45:11 14° S visible
26 Apr 8.1 09:23:58 14° SSW 09:23:58 14° SSW 09:25:32 10° S visible
27 Apr 10.1 01:29:30 10° S 01:34:23 13° SSE 01:36:21 12° SE visible
27 Apr 10.2 03:38:34 10° SW 03:41:00 15° SSW 03:41:00 15° SSW visible
28 Apr 9.6 02:23:24 10° SSW 02:32:10 23° SSE 02:32:10 23° SSE visible
28 Apr 10.4 04:36:19 10° SW 04:36:49 11° SW 04:36:49 11° SW visible
